When you browse on this site, cookies collect data to enhance your experience and personalize the content and advertising you see.
Visit our Privacy Policy to learn more. By continuing to use the site, you agree to this use of cookies and data.
  • în România
  • Lista ţărilor
  • Pe 7 zile
  • Temperatura apei
  • Hartă satelitară
  • Meteo pe hartă
  • Widget-uri
  • user-avatar
    Intrare

    Meteo pe oră la Rogatkino

    Astăzi, 23 Iulie, Marţi

    Timp Temperatura Precipitaţii Vânt Presiune Umiditate
    00:00 +16°C° 0 mm 1 m/s 746 mmHg 86%
    01:00 +16°C° 0 mm 1 m/s 746 mmHg 87%
    02:00 +14°C° 0 mm 0 m/s 746 mmHg 92%
    03:00 +15°C° 0 mm 1 m/s 746 mmHg 92%
    04:00 +15°C° 0 mm 1 m/s 746 mmHg 91%
    05:00 +16°C° 0 mm 1 m/s 745 mmHg 90%
    06:00 +18°C° 0 mm 1 m/s 745 mmHg 86%
    07:00 +18°C° 0 mm 2 m/s 746 mmHg 82%
    08:00 +19°C° 0 mm 2 m/s 746 mmHg 77%
    09:00 +20°C° 0.2 mm 2 m/s 746 mmHg 74%
    10:00 +23°C° 0.2 mm 2 m/s 746 mmHg 70%
    11:00 +24°C° 0.2 mm 3 m/s 746 mmHg 67%
    12:00 +24°C° 0.2 mm 3 m/s 746 mmHg 66%
    13:00 +24°C° 0.2 mm 3 m/s 745 mmHg 65%
    14:00 +24°C° 0.2 mm 3 m/s 745 mmHg 63%
    15:00 +24°C° 0.1 mm 3 m/s 746 mmHg 63%
    16:00 +24°C° 0.1 mm 3 m/s 746 mmHg 63%
    17:00 +24°C° 0.1 mm 3 m/s 746 mmHg 62%
    18:00 +21°C° 0.2 mm 2 m/s 746 mmHg 71%
    19:00 +20°C° 0.2 mm 2 m/s 746 mmHg 80%
    20:00 +18°C° 0.2 mm 2 m/s 745 mmHg 88%
    21:00 +17°C° 0 mm 2 m/s 746 mmHg 90%
    22:00 +16°C° 0 mm 1 m/s 746 mmHg 91%
    23:00 +15°C° 0 mm 1 m/s 746 mmHg 92%

    Mâine, 24 Iulie, Miercuri

    Timp Temperatura Precipitaţii Vânt Presiune Umiditate
    00:00 +15°C° 0 mm 1 m/s 746 mmHg 92%
    01:00 +14°C° 0 mm 1 m/s 746 mmHg 92%
    02:00 +14°C° 0 mm 1 m/s 746 mmHg 91%
    03:00 +14°C° 0 mm 1 m/s 746 mmHg 91%
    04:00 +14°C° 0 mm 2 m/s 746 mmHg 91%
    05:00 +14°C° 0 mm 2 m/s 746 mmHg 92%
    06:00 +16°C° 0 mm 2 m/s 747 mmHg 84%
    07:00 +17°C° 0 mm 2 m/s 747 mmHg 76%
    08:00 +19°C° 0 mm 2 m/s 747 mmHg 69%
    09:00 +20°C° 0 mm 3 m/s 747 mmHg 63%
    10:00 +21°C° 0 mm 3 m/s 747 mmHg 57%
    11:00 +23°C° 0 mm 4 m/s 748 mmHg 52%
    12:00 +23°C° 0 mm 4 m/s 747 mmHg 51%
    13:00 +23°C° 0 mm 5 m/s 747 mmHg 50%
    14:00 +23°C° 0 mm 5 m/s 747 mmHg 49%
    15:00 +23°C° 0 mm 5 m/s 747 mmHg 51%
    16:00 +22°C° 0 mm 5 m/s 747 mmHg 54%
    17:00 +22°C° 0 mm 4 m/s 748 mmHg 56%
    18:00 +20°C° 0 mm 3 m/s 747 mmHg 64%
    19:00 +19°C° 0 mm 2 m/s 747 mmHg 71%
    20:00 +18°C° 0 mm 1 m/s 747 mmHg 79%
    21:00 +18°C° 0 mm 1 m/s 747 mmHg 80%
    22:00 +16°C° 0 mm 1 m/s 748 mmHg 82%
    23:00 +16°C° 0 mm 1 m/s 748 mmHg 83%

    Poimâine, 25 Iulie, Joi

    Timp Temperatura Precipitaţii Vânt Presiune Umiditate
    00:00 +15°C° 0 mm 1 m/s 748 mmHg 84%
    01:00 +15°C° 0 mm 1 m/s 748 mmHg 86%
    02:00 +15°C° 0 mm 1 m/s 747 mmHg 87%
    03:00 +14°C° 0 mm 1 m/s 747 mmHg 89%
    04:00 +14°C° 0 mm 1 m/s 747 mmHg 91%
    05:00 +13°C° 0 mm 2 m/s 747 mmHg 94%
    06:00 +15°C° 0 mm 2 m/s 747 mmHg 86%
    07:00 +16°C° 0 mm 2 m/s 747 mmHg 79%
    08:00 +18°C° 0 mm 2 m/s 747 mmHg 72%
    09:00 +19°C° 0 mm 2 m/s 747 mmHg 67%
    10:00 +20°C° 0 mm 3 m/s 747 mmHg 63%
    11:00 +21°C° 0 mm 3 m/s 747 mmHg 58%
    12:00 +21°C° 0.1 mm 3 m/s 747 mmHg 61%
    13:00 +21°C° 0.1 mm 3 m/s 747 mmHg 63%
    14:00 +21°C° 0.1 mm 3 m/s 747 mmHg 66%
    15:00 +20°C° 0.2 mm 3 m/s 747 mmHg 74%
    16:00 +19°C° 0.2 mm 2 m/s 747 mmHg 82%
    17:00 +17°C° 0.2 mm 2 m/s 747 mmHg 90%
    18:00 +17°C° 0 mm 2 m/s 747 mmHg 92%
    19:00 +16°C° 0 mm 2 m/s 748 mmHg 93%
    20:00 +16°C° 0 mm 1 m/s 748 mmHg 95%
    21:00 +16°C° 0 mm 2 m/s 748 mmHg 96%
    22:00 +15°C° 0 mm 2 m/s 748 mmHg 97%
    23:00 +14°C° 0 mm 2 m/s 748 mmHg 99%

    26 Iulie, Vineri

    Timp Temperatura Precipitaţii Vânt Presiune Umiditate
    00:00 +15°C° 0 mm 2 m/s 748 mmHg 99%
    01:00 +15°C° 0 mm 2 m/s 749 mmHg 99%
    02:00 +15°C° 0 mm 2 m/s 749 mmHg 99%
    03:00 +15°C° 0 mm 2 m/s 749 mmHg 99%
    04:00 +15°C° 0 mm 2 m/s 749 mmHg 98%
    05:00 +16°C° 0 mm 2 m/s 750 mmHg 98%
    06:00 +17°C° 0 mm 3 m/s 750 mmHg 94%
    07:00 +18°C° 0 mm 3 m/s 750 mmHg 90%
    08:00 +19°C° 0 mm 3 m/s 750 mmHg 86%
    09:00 +21°C° 0 mm 3 m/s 750 mmHg 78%
    10:00 +24°C° 0 mm 3 m/s 750 mmHg 71%
    11:00 +25°C° 0 mm 3 m/s 750 mmHg 63%
    12:00 +26°C° 0.2 mm 3 m/s 750 mmHg 63%
    13:00 +27°C° 0.2 mm 3 m/s 750 mmHg 62%
    14:00 +27°C° 0.2 mm 3 m/s 750 mmHg 61%
    15:00 +27°C° 0.5 mm 3 m/s 749 mmHg 69%
    16:00 +26°C° 0.5 mm 2 m/s 749 mmHg 77%
    17:00 +26°C° 0.5 mm 2 m/s 749 mmHg 85%
    18:00 +24°C° 0.2 mm 2 m/s 749 mmHg 88%
    19:00 +23°C° 0.2 mm 2 m/s 749 mmHg 91%
    20:00 +20°C° 0.2 mm 2 m/s 749 mmHg 94%
    21:00 +20°C° 0 mm 2 m/s 749 mmHg 95%
    22:00 +19°C° 0 mm 2 m/s 749 mmHg 96%
    23:00 +19°C° 0 mm 2 m/s 750 mmHg 97%

    27 Iulie, Sâmbătă

    Timp Temperatura Precipitaţii Vânt Presiune Umiditate
    00:00 +18°C° 0 mm 2 m/s 749 mmHg 97%
    01:00 +18°C° 0 mm 2 m/s 749 mmHg 97%
    02:00 +17°C° 0 mm 2 m/s 749 mmHg 97%
    03:00 +17°C° 0 mm 2 m/s 749 mmHg 97%
    04:00 +17°C° 0 mm 2 m/s 749 mmHg 97%
    05:00 +17°C° 0 mm 2 m/s 749 mmHg 97%
    06:00 +19°C° 0 mm 2 m/s 749 mmHg 92%
    07:00 +21°C° 0 mm 3 m/s 749 mmHg 86%
    08:00 +22°C° 0 mm 3 m/s 749 mmHg 81%
    09:00 +25°C° 0 mm 3 m/s 749 mmHg 71%
    10:00 +27°C° 0 mm 4 m/s 749 mmHg 61%
    11:00 +28°C° 0 mm 4 m/s 749 mmHg 52%
    12:00 +29°C° 0 mm 4 m/s 748 mmHg 51%
    13:00 +29°C° 0 mm 4 m/s 748 mmHg 50%
    14:00 +29°C° 0 mm 4 m/s 748 mmHg 48%
    15:00 +29°C° 0 mm 3 m/s 747 mmHg 54%
    16:00 +28°C° 0 mm 3 m/s 747 mmHg 59%
    17:00 +27°C° 0 mm 3 m/s 747 mmHg 65%
    18:00 +26°C° 0.1 mm 2 m/s 747 mmHg 72%
    19:00 +24°C° 0.1 mm 2 m/s 747 mmHg 78%
    20:00 +21°C° 0.1 mm 2 m/s 747 mmHg 85%
    21:00 +21°C° 0 mm 2 m/s 747 mmHg 87%
    22:00 +20°C° 0 mm 2 m/s 747 mmHg 90%
    23:00 +19°C° 0 mm 2 m/s 747 mmHg 92%

    28 Iulie, Duminică

    Timp Temperatura Precipitaţii Vânt Presiune Umiditate
    00:00 +19°C° 0 mm 2 m/s 746 mmHg 93%
    01:00 +18°C° 0 mm 2 m/s 746 mmHg 95%
    02:00 +18°C° 0 mm 2 m/s 746 mmHg 96%
    03:00 +18°C° 0 mm 3 m/s 746 mmHg 95%
    04:00 +17°C° 0 mm 3 m/s 746 mmHg 94%
    05:00 +17°C° 0 mm 3 m/s 746 mmHg 93%
    06:00 +17°C° 0 mm 4 m/s 747 mmHg 86%
    07:00 +18°C° 0 mm 4 m/s 747 mmHg 79%
    08:00 +18°C° 0 mm 4 m/s 747 mmHg 73%
    09:00 +19°C° 0 mm 4 m/s 747 mmHg 68%
    10:00 +19°C° 0 mm 4 m/s 747 mmHg 64%
    11:00 +20°C° 0 mm 4 m/s 747 mmHg 60%
    12:00 +20°C° 0 mm 4 m/s 747 mmHg 56%
    13:00 +21°C° 0 mm 4 m/s 747 mmHg 52%
    14:00 +21°C° 0 mm 4 m/s 747 mmHg 48%
    15:00 +20°C° 0 mm 4 m/s 747 mmHg 49%
    16:00 +20°C° 0 mm 4 m/s 747 mmHg 49%
    17:00 +19°C° 0 mm 4 m/s 747 mmHg 50%
    18:00 +17°C° 0 mm 4 m/s 747 mmHg 57%
    19:00 +16°C° 0 mm 3 m/s 747 mmHg 64%
    20:00 +14°C° 0 mm 2 m/s 747 mmHg 72%
    21:00 +12°C° 0 mm 3 m/s 747 mmHg 74%
    22:00 +11°C° 0 mm 3 m/s 748 mmHg 76%
    23:00 +10°C° 0 mm 3 m/s 748 mmHg 78%
    Arată mai mult